カタログに戻る

STARLINK-11591

運用中通信VLEO
NORAD 63116·PAYLOAD·🇺🇸 United States

打ち上げ Feb 27, 2025 から Cape Canaveral Space Force Station

Loading…

次のパス (今後24時間)

TLE

最新Source: CelesTrak SupGP

元期: Sep 15, 2026, 02:18 UTC

1 63116C 25039N   26258.09631944 -.00035414  00000+0 -27511-3 0  2580
2 63116  43.0004 174.7757 0001599 271.4463 264.8057 15.70851437    13

AllMySatでSTARLINK-11591をリアルタイム追跡

Download on the App Store